Regional Weather Roundup
Issued by NWS Grand Forks, ND

Home | Current Version | Previous Version | Text Only | Print | Product List | Glossary On
Versions: 1 2 3 4 5 6 7 8 9 10 11 12 13 14 15 16 17 18 19 20 21 22 23 24 25 26 27 28 29 30 31 32 33 34 35 36 37 38 39 40 41 42 43 44 45 46 47 48 49 50
000
ASUS43 KFGF 010010
RWRFGF
PRAIRIE TO PINES  WEATHER ROUNDUP
NATIONAL WEATHER SERVICE EASTERN NORTH DAKOTA/GRAND FORKS ND
700 PM CDT FRI JUL 31 2015

 **SATELLITE DATA USED TO AUGMENT SKY COVER AT AUTOMATED STATIONS**
 *****  WEATHER ACROSS EASTERN NORTH DAKOTA  *****

CITY           SKY/WX    TMP DP  RH WIND       PRES   REMARKS
GRAND FORKS    SUNNY     80  49  33 NW12      29.96F
6HR MIN TEMP:  79; 6HR MAX TEMP:  83;

GRAND FRKS AFB SUNNY     78  50  38 NW12      29.98F
GRAND FRKS NWS   N/A     81 N/A N/A NW9         N/A
DEVILS LAKE    SUNNY     79  48  34 NW10      30.01F
6HR MIN TEMP:  77; 6HR MAX TEMP:  81;

FARGO          SUNNY     82  55  39 NW9       29.98F
WAHPETON ARPT  CLEAR     81  50  34 NW8       29.99F
$$

 ***** WEATHER ACROSS CENTRAL AND WESTERN NORTH DAKOTA  *****

CITY           SKY/WX    TMP DP  RH WIND       PRES   REMARKS
BISMARCK       SUNNY     86  53  32 NW6       30.04F
6HR MIN TEMP:  86; 6HR MAX TEMP:  89;

MINOT          SUNNY     81  46  29 NW8       30.04F
6HR MIN TEMP:  80; 6HR MAX TEMP:  83;

JAMESTOWN      SUNNY     81  54  39 NW10      30.01F
6HR MIN TEMP:  78; 6HR MAX TEMP:  84;

MINOT AFB      SUNNY     85  48  27 NW8       30.02F
GARRISON         N/A     82  51  34 N7        30.05F
WILLISTON      SUNNY     89  44  20 VRB3      30.03F
6HR MIN TEMP:  83; 6HR MAX TEMP:  90;

DICKINSON      SUNNY     86  50  28 E8        30.05F
6HR MIN TEMP:  85; 6HR MAX TEMP:  90;

HETTINGER      SUNNY     88  37  16 CALM      30.09F
6HR MIN TEMP:  86; 6HR MAX TEMP:  90;

$$

 *****  OTHER AIRPORT OBSERVATIONS IN OUR AREA  *****

CITY           SKY/WX    TMP DP  RH WIND       PRES   REMARKS
WALHALLA       FAIR      77  50  38 MISG      29.97F
GRAFTON AIRPOR FAIR      79  52  38 NW12      29.97F
VALLEY CITY AR FAIR      82  57  42 N8        30.01F
CANDO          NOT AVBL
CAVALIER APRT  FAIR      77  50  38 NW10      29.97F
GWINNER        FAIR      82  61  47 S5        30.01F
SHEYENNE NWR     N/A     84  57  39 NW5       29.95S
ROLLA          FAIR      72  54  53 NW8       30.04F
 ***** THE ABOVE OBSERVATIONS ARE NON NWS ARE NOT QUALITY
       CONTROLLED AND MAY MIS-REPORT RAIN FOR SNOW...
$$

  *****  WEATHER ACROSS NORTHERN MINNESOTA  *****

CITY           SKY/WX    TMP DP  RH WIND       PRES   REMARKS
FLAG ISLAND    MOSUNNY   73  52  46 W20G31    29.90S
WARROAD        MOSUNNY   73  54  49 W15G24    29.94F
ROSEAU         SUNNY     73  54  49 NW14      29.95S
HALLOCK        SUNNY     79  48  34 NW8       29.95F
THF RVR FALLS  SUNNY     75  48  38 W12       29.97F
6HR MIN TEMP:  75; 6HR MAX TEMP:  79;

BAUDETTE       MOSUNNY   73  49  42 NW16G26   29.92F
6HR MIN TEMP:  72; 6HR MAX TEMP:  77;

WASKISH        MOSUNNY   73  54  49 W15G23    29.95S
CROOKSTON      SUNNY     79  52  38 NW12      29.97F
$$
  *****  WEATHER ACROSS CENTRAL AND WEST MINNESOTA  *****

CITY           SKY/WX    TMP DP  RH WIND       PRES   REMARKS
FOSSTON        SUNNY     77  46  33 NW10      29.99F
BEMIDJI        MOSUNNY   75  48  38 NW13      29.97F
PARK RAPIDS    MOSUNNY   77  50  38 NW13      29.99F
6HR MIN TEMP:  77; 6HR MAX TEMP:  81;

ELBOW LAKE     FAIR      78  59  52 NW8       30.01F
WADENA         MOSUNNY   75  55  50 NW8       30.00F
DETROIT LAKES  SUNNY     77  54  44 NW10      30.02F
MOORHEAD       SUNNY     79  61  53 N6        29.99F
FERGUS FALLS   SUNNY     79  57  47 NW7       29.99F
MORRIS MN      SUNNY     81  61  50 NW6       30.01F
STAPLES        MOSUNNY   75  52  43 NW12G20   29.99F
$$
  *****  WEATHER ELSEWHERE ACROSS MINNESOTA  *****

CITY           SKY/WX    TMP DP  RH WIND       PRES   REMARKS
DULUTH         MOSUNNY   76  47  35 NW17G24   29.92F
6HR MIN TEMP:  72; 6HR MAX TEMP:  79;

INTRNTL FALLS  PTSUNNY   73  53  49 W14G21    29.90S
6HR MIN TEMP:  70; 6HR MAX TEMP:  76;

ELY            PTSUNNY   68  55  64 NW6       29.90F
CLOQUET        SUNNY     75  43  31 W13       29.94S
WHEATON        SUNNY     79  59  50 W3        30.02F
BRAINERD       SUNNY     78  46  32 NW16G23   29.98F
6HR MIN TEMP:  77; 6HR MAX TEMP:  80;

HIBBING        SUNNY     74  48  39 W13G24    29.93S
6HR MIN TEMP:  71; 6HR MAX TEMP:  77; 6HR PCP: TRACE;

ALEXANDRIA     SUNNY     78  57  48 NW7       30.03F
6HR MIN TEMP:  77; 6HR MAX TEMP:  80;

SAINT CLOUD    MOSUNNY   79  53  40 W13       29.99F
6HR MIN TEMP:  79; 6HR MAX TEMP:  82;

MINNEAPOLIS    MOSUNNY   80  52  37 NW20      29.98F
6HR MIN TEMP:  80; 6HR MAX TEMP:  82;

$$

  *****  WEATHER ACROSS SOUTH DAKOTA  *****

CITY           SKY/WX    TMP DP  RH WIND       PRES   REMARKS
SIOUX FALLS    MOSUNNY   84  57  39 N3        30.06F
6HR MIN TEMP:  82; 6HR MAX TEMP:  88;

BROOKINGS      SUNNY     81  57  44 W6        30.07F
WATERTOWN      SUNNY     81  60  48 W8        30.04F
6HR MIN TEMP:  80; 6HR MAX TEMP:  84;

HURON          SUNNY     87  53  31 CALM      30.03F
6HR MIN TEMP:  81; 6HR MAX TEMP:  87;

SISSETON         N/A     83  60  45 NW5       29.99F
ABERDEEN       SUNNY     88  56  33 N5        30.00F
6HR MIN TEMP:  82; 6HR MAX TEMP:  89;

MITCHELL       SUNNY     85  61  44 SE5       30.04F
PIERRE         SUNNY     90  47  22 CALM      30.03F
6HR MIN TEMP:  84; 6HR MAX TEMP:  92;

MOBRIDGE       SUNNY     89  52  28 NW8       30.02F
RAPID CITY     SUNNY     86  55  34 NE8       30.11F
6HR MIN TEMP:  82; 6HR MAX TEMP:  88;

$$

  *****  SOME WEATHER IN NEARBY STATES *****

CITY           SKY/WX    TMP DP  RH WIND       PRES   REMARKS
GLASGOW MT     SUNNY     93  42  17 NW6       29.98F
6HR MIN TEMP:  86; 6HR MAX TEMP:  94;

GREAT FALLS MT SUNNY     91  26   9 VRB3      30.09F
6HR MIN TEMP:  84; 6HR MAX TEMP:  93;

CHEYENNE WY    SUNNY     80  48  32 SE14      30.29F
6HR MIN TEMP:  67; 6HR MAX TEMP:  85; 6HR PCP:  0.04;

SCOTTSBLUFF NE SUNNY     89  46  22 CALM      30.14F
6HR MIN TEMP:  83; 6HR MAX TEMP:  93;

OMAHA NE       CLOUDY    85  77  77 N5        30.02F HX  95
6HR MIN TEMP:  85; 6HR MAX TEMP:  93;

DES MOINES IA  MOSUNNY   86  59  39 E5        30.03S
6HR MIN TEMP:  86; 6HR MAX TEMP:  90;

DAVENPORT IA   SUNNY     79  59  50 W8        30.01S
6HR MIN TEMP:  79; 6HR MAX TEMP:  85;

CHICAGO IL     SUNNY     82  48  30 NW17      29.93S
6HR MIN TEMP:  82; 6HR MAX TEMP:  87;

EAU CLAIRE WI  SUNNY     78  49  35 NW13      29.95F
6HR MIN TEMP:  77; 6HR MAX TEMP:  81;

LA CROSSE WI   SUNNY     80  52  37 NW12      29.96F
6HR MIN TEMP:  80; 6HR MAX TEMP:  84;

$$

  *****  SOME NATIONAL WEATHER *****

CITY           SKY/WX    TMP DP  RH WIND       PRES   REMARKS
LA GUARDIA NY  PTCLDY    85  55  35 W6        29.79S
6HR MIN TEMP:  85; 6HR MAX TEMP:  91;

RALEIGH NC     PTCLDY    84  63  49 CALM      29.93R
6HR MIN TEMP:  84; 6HR MAX TEMP:  91;

ATLANTA GA     MOCLDY    79  71  76 SE10G21   29.94R
6HR MIN TEMP:  79; 6HR MAX TEMP:  93; 6HR PCP:  0.10;

NEW ORLEANS LA MOSUNNY   91  72  53 N16       29.87R HX  98
6HR MIN TEMP:  89; 6HR MAX TEMP:  93;

OKLAHOMA CITY  CLOUDY    75  72  90 SE9       30.06F
6HR MIN TEMP:  75; 6HR MAX TEMP:  91; 6HR PCP:  0.06;

ALBUQUERQUE NM PTSUNNY   81  51  35 NW8       30.25S
6HR MIN TEMP:  77; 6HR MAX TEMP:  86;

SALT LAKE CITY MOSUNNY   93  24   8 N6        30.12F
6HR MIN TEMP:  86; 6HR MAX TEMP:  95;

LOS ANGELES CA MOSUNNY   75  65  70 W15       29.96F
6HR MIN TEMP:  73; 6HR MAX TEMP:  76;

BOISE ID       SUNNY     98  36  11 NW13      30.04F HX  93


USA.gov is the U.S. government's official web portal to all federal, state and local government web resources and services.